Zeit;wasserstand;wasserstand_status;abfluss;abfluss_status
2001-12-07 00:00:00;251.0;0;;1
2001-12-08 00:00:00;240.0;0;;1
2001-12-09 00:00:00;235.0;0;;1
2001-12-10 00:00:00;233.0;0;;1
2001-12-11 00:00:00;232.0;0;;1
2001-12-12 00:00:00;229.0;0;;1
2001-12-13 00:00:00;226.0;0;;1
2001-12-14 00:00:00;223.0;0;;1
2001-12-15 00:00:00;221.0;0;;1
2001-12-16 00:00:00;216.0;0;;1
2001-12-17 00:00:00;209.0;0;;1
2001-12-18 00:00:00;208.0;0;;1
2001-12-19 00:00:00;209.0;0;;1
2001-12-20 00:00:00;215.0;0;;1
2001-12-21 00:00:00;235.0;0;;1
2001-12-22 00:00:00;262.0;0;;1
2001-12-23 00:00:00;250.0;0;;1
2001-12-24 00:00:00;245.0;0;;1
2001-12-25 00:00:00;283.0;0;;1
2001-12-26 00:00:00;294.0;0;;1
2001-12-27 00:00:00;286.0;0;;1
2001-12-28 00:00:00;274.0;0;;1
2001-12-29 00:00:00;277.0;0;;1
2001-12-30 00:00:00;275.0;0;;1
2001-12-31 00:00:00;272.0;0;;1
2002-01-01 00:00:00;263.0;0;;1
2002-01-02 00:00:00;293.0;0;;1
2002-01-03 00:00:00;304.0;0;;1
2002-01-04 00:00:00;284.0;0;;1
2002-01-05 00:00:00;265.0;0;;1
2002-01-06 00:00:00;257.0;0;;1
2002-01-07 00:00:00;266.0;0;;1
2002-01-08 00:00:00;262.0;0;;1
2002-01-09 00:00:00;256.0;0;;1
2002-01-10 00:00:00;249.0;0;;1
2002-01-11 00:00:00;244.0;0;;1
2002-01-12 00:00:00;241.0;0;;1
2002-01-13 00:00:00;238.0;0;;1
2002-01-14 00:00:00;234.0;0;;1
2002-01-15 00:00:00;232.0;0;;1
2002-01-16 00:00:00;233.0;0;;1
2002-01-17 00:00:00;234.0;0;;1
2002-01-18 00:00:00;246.0;0;;1
2002-01-19 00:00:00;262.0;0;;1
2002-01-20 00:00:00;264.0;0;;1
2002-01-21 00:00:00;285.0;0;;1
2002-01-22 00:00:00;290.0;0;;1
2002-01-23 00:00:00;289.0;0;;1
2002-01-24 00:00:00;287.0;0;;1
2002-01-25 00:00:00;296.0;0;;1
2002-01-26 00:00:00;303.0;0;;1
2002-01-27 00:00:00;301.0;0;;1
2002-01-28 00:00:00;288.0;0;;1
2002-01-29 00:00:00;297.0;0;;1
2002-01-30 00:00:00;297.0;0;;1
2002-01-31 00:00:00;294.0;0;;1
2002-02-01 00:00:00;293.0;0;;1
2002-02-02 00:00:00;286.0;0;;1
2002-02-03 00:00:00;276.0;0;;1
2002-02-04 00:00:00;267.0;0;;1
2002-02-05 00:00:00;263.0;0;;1
2002-02-06 00:00:00;274.0;0;;1
2002-02-07 00:00:00;275.0;0;;1
2002-02-08 00:00:00;271.0;0;;1
2002-02-09 00:00:00;270.0;0;;1
2002-02-10 00:00:00;273.0;0;;1
2002-02-11 00:00:00;273.0;0;;1
2002-02-12 00:00:00;281.0;0;;1
2002-02-13 00:00:00;280.0;0;;1
2002-02-14 00:00:00;272.0;0;;1
2002-02-15 00:00:00;260.0;0;;1
2002-02-16 00:00:00;249.0;0;;1
2002-02-17 00:00:00;240.0;0;;1
2002-02-18 00:00:00;235.0;0;;1
2002-02-19 00:00:00;241.0;0;;1
2002-02-20 00:00:00;259.0;0;;1
2002-02-21 00:00:00;274.0;0;;1
2002-02-22 00:00:00;276.0;0;;1
2002-02-23 00:00:00;290.0;0;;1
2002-02-24 00:00:00;292.0;0;;1
2002-02-25 00:00:00;286.0;0;;1
2002-02-26 00:00:00;286.0;0;;1
2002-02-27 00:00:00;304.0;0;;1
2002-02-28 00:00:00;309.0;0;;1
2002-03-01 00:00:00;306.0;0;;1
2002-03-02 00:00:00;297.0;0;;1
2002-03-03 00:00:00;289.0;0;;1
2002-03-04 00:00:00;283.0;0;;1
2002-03-05 00:00:00;276.0;0;;1
2002-03-06 00:00:00;269.0;0;;1
2002-03-07 00:00:00;275.0;0;;1
2002-03-08 00:00:00;278.0;0;;1
2002-03-09 00:00:00;274.0;0;;1
2002-03-10 00:00:00;271.0;0;;1
2002-03-11 00:00:00;269.0;0;;1
2002-03-12 00:00:00;266.0;0;;1
2002-03-13 00:00:00;261.0;0;;1
2002-03-14 00:00:00;255.0;0;;1
2002-03-15 00:00:00;247.0;0;;1
2002-03-16 00:00:00;240.0;0;;1
2002-03-17 00:00:00;236.0;0;;1
2002-03-18 00:00:00;233.0;0;;1
2002-03-19 00:00:00;241.0;0;;1
2002-03-20 00:00:00;248.0;0;;1
2002-03-21 00:00:00;241.0;0;;1
2002-03-22 00:00:00;236.0;0;;1
2002-03-23 00:00:00;230.0;0;;1
2002-03-24 00:00:00;227.0;0;;1
2002-03-25 00:00:00;224.0;0;;1
2002-03-26 00:00:00;222.0;0;;1
2002-03-27 00:00:00;220.0;0;;1
2002-03-28 00:00:00;218.0;0;;1
2002-03-29 00:00:00;228.0;0;;1
2002-03-30 00:00:00;244.0;0;;1
2002-03-31 00:00:00;242.0;0;;1
2002-04-01 00:00:00;241.0;0;;1
2002-04-02 00:00:00;239.0;0;;1
2002-04-03 00:00:00;238.0;0;;1
2002-04-04 00:00:00;237.0;0;;1
2002-04-05 00:00:00;235.0;0;;1
2002-04-06 00:00:00;232.0;0;;1
2002-04-07 00:00:00;231.0;0;;1
2002-04-08 00:00:00;239.0;0;;1
2002-04-09 00:00:00;262.0;0;;1
2002-04-10 00:00:00;262.0;0;;1
2002-04-11 00:00:00;266.0;0;;1
2002-04-12 00:00:00;264.0;0;;1
2002-04-13 00:00:00;260.0;0;;1
2002-04-14 00:00:00;259.0;0;;1
2002-04-15 00:00:00;260.0;0;;1
2002-04-16 00:00:00;259.0;0;;1
2002-04-17 00:00:00;259.0;0;;1
2002-04-18 00:00:00;260.0;0;;1
2002-04-19 00:00:00;259.0;0;;1
2002-04-20 00:00:00;255.0;0;;1
2002-04-21 00:00:00;247.0;0;;1
2002-04-22 00:00:00;248.0;0;;1
2002-04-23 00:00:00;250.0;0;;1
2002-04-24 00:00:00;250.0;0;;1
2002-04-25 00:00:00;249.0;0;;1
2002-04-26 00:00:00;250.0;0;;1
2002-04-27 00:00:00;262.0;0;;1
2002-04-28 00:00:00;263.0;0;;1
2002-04-29 00:00:00;268.0;0;;1
2002-04-30 00:00:00;273.0;0;;1
2002-05-01 00:00:00;274.0;0;;1
2002-05-02 00:00:00;271.0;0;;1
2002-05-03 00:00:00;261.0;0;;1
2002-05-04 00:00:00;253.0;0;;1
2002-05-05 00:00:00;257.0;0;;1
2002-05-06 00:00:00;262.0;0;;1
2002-05-07 00:00:00;262.0;0;;1
2002-05-08 00:00:00;261.0;0;;1
2002-05-09 00:00:00;257.0;0;;1
2002-05-10 00:00:00;255.0;0;;1
2002-05-11 00:00:00;251.0;0;;1
2002-05-12 00:00:00;253.0;0;;1
2002-05-13 00:00:00;251.0;0;;1
2002-05-14 00:00:00;248.0;0;;1
2002-05-15 00:00:00;247.0;0;;1
2002-05-16 00:00:00;243.0;0;;1
2002-05-17 00:00:00;239.0;0;;1
2002-05-18 00:00:00;237.0;0;;1
2002-05-19 00:00:00;240.0;0;;1
2002-05-20 00:00:00;240.0;0;;1
2002-05-21 00:00:00;238.0;0;;1
2002-05-22 00:00:00;238.0;0;;1
2002-05-23 00:00:00;242.0;0;;1
2002-05-24 00:00:00;245.0;0;;1
2002-05-25 00:00:00;243.0;0;;1
2002-05-26 00:00:00;239.0;0;;1
2002-05-27 00:00:00;237.0;0;;1
2002-05-28 00:00:00;235.0;0;;1
2002-05-29 00:00:00;233.0;0;;1
2002-05-30 00:00:00;231.0;0;;1
2002-05-31 00:00:00;233.0;0;;1
2002-06-01 00:00:00;237.0;0;;1
2002-06-02 00:00:00;235.0;0;;1
2002-06-03 00:00:00;231.0;0;;1
2002-06-04 00:00:00;228.0;0;;1
2002-06-05 00:00:00;224.0;0;;1
2002-06-06 00:00:00;219.0;0;;1
2002-06-07 00:00:00;223.0;0;;1
2002-06-08 00:00:00;217.0;0;;1
2002-06-09 00:00:00;216.0;0;;1
2002-06-10 00:00:00;220.0;0;;1
2002-06-11 00:00:00;220.0;0;;1
2002-06-12 00:00:00;223.0;0;;1
2002-06-13 00:00:00;226.0;0;;1
2002-06-14 00:00:00;229.0;0;;1
2002-06-15 00:00:00;227.0;0;;1
2002-06-16 00:00:00;222.0;0;;1
2002-06-17 00:00:00;217.0;0;;1
2002-06-18 00:00:00;215.0;0;;1
2002-06-19 00:00:00;221.0;0;;1
2002-06-20 00:00:00;221.0;0;;1
2002-06-21 00:00:00;222.0;0;;1
2002-06-22 00:00:00;220.0;0;;1
2002-06-23 00:00:00;217.0;0;;1
2002-06-24 00:00:00;212.0;0;;1
2002-06-25 00:00:00;207.0;0;;1
2002-06-26 00:00:00;204.0;0;;1
2002-06-27 00:00:00;205.0;0;;1
2002-06-28 00:00:00;210.0;0;;1
2002-06-29 00:00:00;209.0;0;;1
2002-06-30 00:00:00;208.0;0;;1
2002-07-01 00:00:00;218.0;0;;1
2002-07-02 00:00:00;220.0;0;;1
2002-07-03 00:00:00;220.0;0;;1
2002-07-04 00:00:00;227.0;0;;1
2002-07-05 00:00:00;226.0;0;;1
2002-07-06 00:00:00;222.0;0;;1
2002-07-07 00:00:00;218.0;0;;1
2002-07-08 00:00:00;215.0;0;;1
2002-07-09 00:00:00;212.0;0;;1
2002-07-10 00:00:00;212.0;0;;1
2002-07-11 00:00:00;242.0;0;;1
2002-07-12 00:00:00;256.0;0;;1
2002-07-13 00:00:00;248.0;0;;1
2002-07-14 00:00:00;237.0;0;;1
2002-07-15 00:00:00;228.0;0;;1
2002-07-16 00:00:00;221.0;0;;1
2002-07-17 00:00:00;217.0;0;;1
2002-07-18 00:00:00;243.0;0;;1
2002-07-19 00:00:00;298.0;0;;1
2002-07-20 00:00:00;307.0;0;;1
2002-07-21 00:00:00;291.0;0;;1
2002-07-22 00:00:00;288.0;0;;1
2002-07-23 00:00:00;284.0;0;;1
2002-07-24 00:00:00;265.0;0;;1
2002-07-25 00:00:00;262.0;0;;1
2002-07-26 00:00:00;258.0;0;;1
2002-07-27 00:00:00;254.0;0;;1
2002-07-28 00:00:00;249.0;0;;1
2002-07-29 00:00:00;244.0;0;;1
2002-07-30 00:00:00;240.0;0;;1
2002-07-31 00:00:00;235.0;0;;1
2002-08-01 00:00:00;230.0;0;;1
2002-08-02 00:00:00;233.0;0;;1
2002-08-03 00:00:00;237.0;0;;1
2002-08-04 00:00:00;232.0;0;;1
2002-08-05 00:00:00;230.0;0;;1
2002-08-06 00:00:00;237.0;0;;1
2002-08-07 00:00:00;261.0;0;;1
2002-08-08 00:00:00;265.0;0;;1
2002-08-09 00:00:00;265.0;0;;1
2002-08-10 00:00:00;258.0;0;;1
2002-08-11 00:00:00;252.0;0;;1
2002-08-12 00:00:00;250.0;0;;1
2002-08-13 00:00:00;248.0;0;;1
2002-08-14 00:00:00;244.0;0;;1
2002-08-15 00:00:00;239.0;0;;1
2002-08-16 00:00:00;237.0;0;;1
2002-08-17 00:00:00;233.0;0;;1
2002-08-18 00:00:00;244.0;0;;1
2002-08-19 00:00:00;268.0;0;;1
2002-08-20 00:00:00;267.0;0;;1
2002-08-21 00:00:00;265.0;0;;1
2002-08-22 00:00:00;266.0;0;;1
2002-08-23 00:00:00;269.0;0;;1
2002-08-24 00:00:00;263.0;0;;1
2002-08-25 00:00:00;258.0;0;;1
2002-08-26 00:00:00;254.0;0;;1
2002-08-27 00:00:00;251.0;0;;1
2002-08-28 00:00:00;250.0;0;;1
2002-08-29 00:00:00;244.0;0;;1
2002-08-30 00:00:00;240.0;0;;1
2002-08-31 00:00:00;286.0;0;;1
2002-09-01 00:00:00;286.0;0;;1
2002-09-02 00:00:00;286.0;0;;1
2002-09-03 00:00:00;285.0;0;;1
2002-09-04 00:00:00;285.0;0;;1
2002-09-05 00:00:00;285.0;0;;1
2002-09-06 00:00:00;285.0;0;;1
2002-09-07 00:00:00;284.0;0;;1
2002-09-08 00:00:00;284.0;0;;1
2002-09-09 00:00:00;284.0;0;;1
2002-09-10 00:00:00;284.0;0;;1
2002-09-11 00:00:00;250.0;0;;1
2002-09-12 00:00:00;179.0;0;;1
2002-09-13 00:00:00;221.0;0;;1
2002-09-14 00:00:00;221.0;0;;1
2002-09-15 00:00:00;239.0;0;;1
2002-09-16 00:00:00;281.0;0;;1
2002-09-17 00:00:00;281.0;0;;1
2002-09-18 00:00:00;281.0;0;;1
2002-09-19 00:00:00;281.0;0;;1
2002-09-20 00:00:00;281.0;0;;1
2002-09-21 00:00:00;280.0;0;;1
2002-09-22 00:00:00;279.0;0;;1
2002-09-23 00:00:00;280.0;0;;1
2002-09-24 00:00:00;280.0;0;;1
2002-09-25 00:00:00;280.0;0;;1
2002-09-26 00:00:00;280.0;0;;1
2002-09-27 00:00:00;280.0;0;;1
2002-09-28 00:00:00;272.0;0;;1
2002-09-29 00:00:00;233.0;0;;1
2002-09-30 00:00:00;242.0;0;;1
2002-10-01 00:00:00;242.0;0;;1
2002-10-02 00:00:00;243.0;0;;1
2002-10-03 00:00:00;242.0;0;;1
2002-10-04 00:00:00;243.0;0;;1
2002-10-05 00:00:00;261.0;0;;1
2002-10-06 00:00:00;276.0;0;;1
2002-10-07 00:00:00;276.0;0;;1
2002-10-08 00:00:00;273.0;0;;1
2002-10-09 00:00:00;273.0;0;;1
2002-10-10 00:00:00;274.0;0;;1
2002-10-11 00:00:00;275.0;0;;1
2002-10-12 00:00:00;276.0;0;;1
2002-10-13 00:00:00;273.0;0;;1
2002-10-14 00:00:00;272.0;0;;1
2002-10-15 00:00:00;272.0;0;;1
2002-10-16 00:00:00;271.0;0;;1
2002-10-17 00:00:00;278.0;0;;1
2002-10-18 00:00:00;287.0;0;;1
2002-10-19 00:00:00;289.0;0;;1
2002-10-20 00:00:00;284.0;0;;1
2002-10-21 00:00:00;283.0;0;;1
2002-10-22 00:00:00;286.0;0;;1
2002-10-23 00:00:00;297.0;0;;1
2002-10-24 00:00:00;299.0;0;;1
2002-10-25 00:00:00;299.0;0;;1
2002-10-26 00:00:00;290.0;0;;1
2002-10-27 00:00:00;275.0;0;;1
2002-10-28 00:00:00;234.0;0;;1
2002-10-29 00:00:00;216.0;0;;1
2002-10-30 00:00:00;217.0;0;;1
2002-10-31 00:00:00;214.0;0;;1
2002-11-01 00:00:00;206.0;0;;1
2002-11-02 00:00:00;202.0;0;;1
2002-11-03 00:00:00;199.0;0;;1
2002-11-04 00:00:00;198.0;0;;1
2002-11-05 00:00:00;197.0;0;;1
2002-11-06 00:00:00;203.0;0;;1
2002-11-07 00:00:00;220.0;0;;1
2002-11-08 00:00:00;224.0;0;;1
2002-11-09 00:00:00;244.0;0;;1
2002-11-10 00:00:00;259.0;0;;1
2002-11-11 00:00:00;258.0;0;;1
2002-11-12 00:00:00;253.0;0;;1
2002-11-13 00:00:00;248.0;0;;1
2002-11-14 00:00:00;246.0;0;;1
2002-11-15 00:00:00;243.0;0;;1
2002-11-16 00:00:00;239.0;0;;1
2002-11-17 00:00:00;244.0;0;;1
2002-11-18 00:00:00;253.0;0;;1
2002-11-19 00:00:00;253.0;0;;1
2002-11-20 00:00:00;248.0;0;;1
2002-11-21 00:00:00;242.0;0;;1
2002-11-22 00:00:00;237.0;0;;1
2002-11-23 00:00:00;236.0;0;;1
2002-11-24 00:00:00;244.0;0;;1
2002-11-25 00:00:00;243.0;0;;1
2002-11-26 00:00:00;240.0;0;;1
2002-11-27 00:00:00;235.0;0;;1
2002-11-28 00:00:00;231.0;0;;1
2002-11-29 00:00:00;228.0;0;;1
2002-11-30 00:00:00;226.0;0;;1
2002-12-01 00:00:00;225.0;0;;1
2002-12-02 00:00:00;224.0;0;;1
2002-12-03 00:00:00;222.0;0;;1
2002-12-04 00:00:00;221.0;0;;1
2002-12-05 00:00:00;220.0;0;;1
2002-12-06 00:00:00;219.0;0;;1
2002-12-07 00:00:00;218.0;0;;1
2002-12-08 00:00:00;216.0;0;;1
2002-12-09 00:00:00;215.0;0;;1
2002-12-10 00:00:00;214.0;0;;1
2002-12-11 00:00:00;213.0;0;;1
2002-12-12 00:00:00;212.0;0;;1
2002-12-13 00:00:00;211.0;0;;1
2002-12-14 00:00:00;211.0;0;;1
2002-12-15 00:00:00;209.0;0;;1
2002-12-16 00:00:00;210.0;0;;1
2002-12-17 00:00:00;209.0;0;;1
2002-12-18 00:00:00;209.0;0;;1
2002-12-19 00:00:00;209.0;0;;1
2002-12-20 00:00:00;208.0;0;;1
2002-12-21 00:00:00;208.0;0;;1
2002-12-22 00:00:00;208.0;0;;1
2002-12-23 00:00:00;207.0;0;;1
2002-12-24 00:00:00;203.0;0;;1
2002-12-25 00:00:00;211.0;0;;1
2002-12-26 00:00:00;209.0;0;;1
2002-12-27 00:00:00;219.0;0;;1
2002-12-28 00:00:00;249.0;0;;1
2002-12-29 00:00:00;258.0;0;;1
2002-12-30 00:00:00;263.0;0;;1
2002-12-31 00:00:00;254.0;0;;1
2003-01-01 00:00:00;242.0;0;;1
2003-01-02 00:00:00;236.0;0;;1
2003-01-03 00:00:00;229.0;0;;1
2003-01-04 00:00:00;224.0;0;;1
2003-01-05 00:00:00;220.0;0;;1
2003-01-06 00:00:00;220.0;0;;1
2003-01-07 00:00:00;217.0;0;;1
2003-01-08 00:00:00;217.0;0;;1
2003-01-09 00:00:00;214.0;0;;1
2003-01-10 00:00:00;211.0;0;;1
2003-01-11 00:00:00;212.0;0;;1
2003-01-12 00:00:00;212.0;0;;1
2003-01-13 00:00:00;243.0;0;;1
2003-01-14 00:00:00;278.0;0;;1
2003-01-15 00:00:00;287.0;0;;1
2003-01-16 00:00:00;286.0;0;;1
2003-01-17 00:00:00;278.0;0;;1
2003-01-18 00:00:00;267.0;0;;1
2003-01-19 00:00:00;259.0;0;;1
2003-01-20 00:00:00;256.0;0;;1
2003-01-21 00:00:00;262.0;0;;1
2003-01-22 00:00:00;271.0;0;;1
2003-01-23 00:00:00;259.0;0;;1
2003-01-24 00:00:00;249.0;0;;1
2003-01-25 00:00:00;244.0;0;;1
2003-01-26 00:00:00;254.0;0;;1
2003-01-27 00:00:00;262.0;0;;1
2003-01-28 00:00:00;281.0;0;;1
2003-01-29 00:00:00;298.0;0;;1
2003-01-30 00:00:00;302.0;0;;1
2003-01-31 00:00:00;292.0;0;;1
2003-02-01 00:00:00;277.0;0;;1
2003-02-02 00:00:00;267.0;0;;1
2003-02-03 00:00:00;268.0;0;;1
2003-02-04 00:00:00;274.0;0;;1
2003-02-05 00:00:00;275.0;0;;1
2003-02-06 00:00:00;269.0;0;;1
2003-02-07 00:00:00;260.0;0;;1
2003-02-08 00:00:00;257.0;0;;1
2003-02-09 00:00:00;260.0;0;;1
2003-02-10 00:00:00;260.0;0;;1
2003-02-11 00:00:00;253.0;0;;1
2003-02-12 00:00:00;248.0;0;;1
2003-02-13 00:00:00;243.0;0;;1
2003-02-14 00:00:00;240.0;0;;1
2003-02-15 00:00:00;239.0;0;;1
2003-02-16 00:00:00;236.0;0;;1
2003-02-17 00:00:00;231.0;0;;1
2003-02-18 00:00:00;237.0;0;;1
2003-02-19 00:00:00;238.0;0;;1
2003-02-20 00:00:00;237.0;0;;1
2003-02-21 00:00:00;235.0;0;;1
2003-02-22 00:00:00;232.0;0;;1
2003-02-23 00:00:00;230.0;0;;1
2003-02-24 00:00:00;229.0;0;;1
2003-02-25 00:00:00;228.0;0;;1
2003-02-26 00:00:00;227.0;0;;1
2003-02-27 00:00:00;226.0;0;;1
2003-02-28 00:00:00;225.0;0;;1
2003-03-01 00:00:00;226.0;0;;1
2003-03-02 00:00:00;227.0;0;;1
2003-03-03 00:00:00;226.0;0;;1
2003-03-04 00:00:00;225.0;0;;1
2003-03-05 00:00:00;226.0;0;;1
2003-03-06 00:00:00;228.0;0;;1
2003-03-07 00:00:00;234.0;0;;1
2003-03-08 00:00:00;243.0;0;;1
2003-03-09 00:00:00;263.0;0;;1
2003-03-10 00:00:00;269.0;0;;1
2003-03-11 00:00:00;266.0;0;;1
2003-03-12 00:00:00;273.0;0;;1
2003-03-13 00:00:00;268.0;0;;1
2003-03-14 00:00:00;260.0;0;;1
2003-03-15 00:00:00;251.0;0;;1
2003-03-16 00:00:00;245.0;0;;1
2003-03-17 00:00:00;244.0;0;;1
2003-03-18 00:00:00;242.0;0;;1
2003-03-19 00:00:00;242.0;0;;1
2003-03-20 00:00:00;242.0;0;;1
2003-03-21 00:00:00;239.0;0;;1
2003-03-22 00:00:00;235.0;0;;1
2003-03-23 00:00:00;235.0;0;;1
2003-03-24 00:00:00;233.0;0;;1
2003-03-25 00:00:00;233.0;0;;1
2003-03-26 00:00:00;233.0;0;;1
2003-03-27 00:00:00;231.0;0;;1
2003-03-28 00:00:00;230.0;0;;1
2003-03-29 00:00:00;229.0;0;;1
2003-03-30 00:00:00;226.0;0;;1
2003-03-31 00:00:00;226.0;0;;1
2003-04-01 00:00:00;220.0;0;;1
2003-04-02 00:00:00;219.0;0;;1
2003-04-03 00:00:00;218.0;0;;1
2003-04-04 00:00:00;215.0;0;;1
2003-04-05 00:00:00;215.0;0;;1
2003-04-06 00:00:00;214.0;0;;1
2003-04-07 00:00:00;216.0;0;;1
2003-04-08 00:00:00;219.0;0;;1
2003-04-09 00:00:00;208.0;0;;1
2003-04-10 00:00:00;208.0;0;;1
2003-04-11 00:00:00;208.0;0;;1
2003-04-12 00:00:00;208.0;0;;1
2003-04-13 00:00:00;208.0;0;;1
2003-04-14 00:00:00;207.0;0;;1
2003-04-15 00:00:00;207.0;0;;1
2003-04-16 00:00:00;207.0;0;;1
2003-04-17 00:00:00;206.0;0;;1
2003-04-18 00:00:00;206.0;0;;1
2003-04-19 00:00:00;205.0;0;;1
2003-04-20 00:00:00;205.0;0;;1
2003-04-21 00:00:00;203.0;0;;1
2003-04-22 00:00:00;200.0;0;;1
2003-04-23 00:00:00;199.0;0;;1
2003-04-24 00:00:00;200.0;0;;1
2003-04-25 00:00:00;200.0;0;;1
2003-04-26 00:00:00;200.0;0;;1
2003-04-27 00:00:00;217.0;0;;1
2003-04-28 00:00:00;214.0;0;;1
2003-04-29 00:00:00;211.0;0;;1
2003-04-30 00:00:00;210.0;0;;1
2003-05-01 00:00:00;220.0;0;;1
2003-05-02 00:00:00;221.0;0;;1
2003-05-03 00:00:00;219.0;0;;1
2003-05-04 00:00:00;218.0;0;;1
2003-05-05 00:00:00;214.0;0;;1
2003-05-06 00:00:00;212.0;0;;1
2003-05-07 00:00:00;210.0;0;;1
2003-05-08 00:00:00;208.0;0;;1
2003-05-09 00:00:00;207.0;0;;1
2003-05-10 00:00:00;206.0;0;;1
2003-05-11 00:00:00;204.0;0;;1
2003-05-12 00:00:00;203.0;0;;1
2003-05-13 00:00:00;204.0;0;;1
2003-05-14 00:00:00;204.0;0;;1
2003-05-15 00:00:00;203.0;0;;1
2003-05-16 00:00:00;202.0;0;;1
2003-05-17 00:00:00;202.0;0;;1
2003-05-18 00:00:00;202.0;0;;1
2003-05-19 00:00:00;202.0;0;;1
2003-05-20 00:00:00;206.0;0;;1
2003-05-21 00:00:00;209.0;0;;1
2003-05-22 00:00:00;207.0;0;;1
2003-05-23 00:00:00;215.0;0;;1
2003-05-24 00:00:00;223.0;0;;1
2003-05-25 00:00:00;222.0;0;;1
2003-05-26 00:00:00;217.0;0;;1
2003-05-27 00:00:00;212.0;0;;1
2003-05-28 00:00:00;209.0;0;;1
2003-05-29 00:00:00;207.0;0;;1
2003-05-30 00:00:00;205.0;0;;1
2003-05-31 00:00:00;204.0;0;;1
2003-06-01 00:00:00;202.0;0;;1
2003-06-02 00:00:00;201.0;0;;1
2003-06-03 00:00:00;201.0;0;;1
2003-06-04 00:00:00;200.0;0;;1
2003-06-05 00:00:00;200.0;0;;1
2003-06-06 00:00:00;200.0;0;;1
2003-06-07 00:00:00;199.0;0;;1
2003-06-08 00:00:00;199.0;0;;1
2003-06-09 00:00:00;201.0;0;;1
2003-06-10 00:00:00;202.0;0;;1
2003-06-11 00:00:00;202.0;0;;1
2003-06-12 00:00:00;201.0;0;;1
2003-06-13 00:00:00;200.0;0;;1
2003-06-14 00:00:00;200.0;0;;1
2003-06-15 00:00:00;199.0;0;;1
2003-06-16 00:00:00;199.0;0;;1
2003-06-17 00:00:00;198.0;0;;1
2003-06-18 00:00:00;199.0;0;;1
2003-06-19 00:00:00;200.0;0;;1
2003-06-20 00:00:00;200.0;0;;1
2003-06-21 00:00:00;202.0;0;;1
2003-06-22 00:00:00;202.0;0;;1
2003-06-23 00:00:00;202.0;0;;1
2003-06-24 00:00:00;204.0;0;;1
2003-06-25 00:00:00;204.0;0;;1
2003-06-26 00:00:00;203.0;0;;1
2003-06-27 00:00:00;203.0;0;;1
2003-06-28 00:00:00;202.0;0;;1
2003-06-29 00:00:00;202.0;0;;1
2003-06-30 00:00:00;203.0;0;;1
2003-07-01 00:00:00;205.0;0;;1
2003-07-02 00:00:00;207.0;0;;1
2003-07-03 00:00:00;209.0;0;;1
2003-07-04 00:00:00;215.0;0;;1
2003-07-05 00:00:00;216.0;0;;1
2003-07-06 00:00:00;213.0;0;;1
2003-07-07 00:00:00;210.0;0;;1
2003-07-08 00:00:00;209.0;0;;1
2003-07-09 00:00:00;207.0;0;;1
2003-07-10 00:00:00;207.0;0;;1
2003-07-11 00:00:00;206.0;0;;1
2003-07-12 00:00:00;205.0;0;;1
2003-07-13 00:00:00;205.0;0;;1
2003-07-14 00:00:00;204.0;0;;1
2003-07-15 00:00:00;204.0;0;;1
2003-07-16 00:00:00;204.0;0;;1
2003-07-17 00:00:00;201.0;0;;1
2003-07-18 00:00:00;200.0;0;;1
2003-07-19 00:00:00;201.0;0;;1
2003-07-20 00:00:00;201.0;0;;1
2003-07-21 00:00:00;200.0;0;;1
2003-07-22 00:00:00;201.0;0;;1
2003-07-23 00:00:00;204.0;0;;1
2003-07-24 00:00:00;205.0;0;;1
2003-07-25 00:00:00;205.0;0;;1
2003-07-26 00:00:00;205.0;0;;1
2003-07-27 00:00:00;205.0;0;;1
2003-07-28 00:00:00;205.0;0;;1
2003-07-29 00:00:00;204.0;0;;1
2003-07-30 00:00:00;203.0;0;;1
2003-07-31 00:00:00;203.0;0;;1
2003-08-01 00:00:00;202.0;0;;1
2003-08-02 00:00:00;202.0;0;;1
2003-08-03 00:00:00;201.0;0;;1
2003-08-04 00:00:00;200.0;0;;1
2003-08-05 00:00:00;200.0;0;;1
2003-08-06 00:00:00;200.0;0;;1
2003-08-07 00:00:00;200.0;0;;1
2003-08-08 00:00:00;200.0;0;;1
2003-08-09 00:00:00;200.0;0;;1
2003-08-10 00:00:00;200.0;0;;1
2003-08-11 00:00:00;199.0;0;;1
2003-08-12 00:00:00;199.0;0;;1
2003-08-13 00:00:00;199.0;0;;1
2003-08-14 00:00:00;201.0;0;;1
2003-08-15 00:00:00;203.0;0;;1
2003-08-16 00:00:00;203.0;0;;1
2003-08-17 00:00:00;203.0;0;;1
2003-08-18 00:00:00;203.0;0;;1
2003-08-19 00:00:00;203.0;0;;1
2003-08-20 00:00:00;203.0;0;;1
2003-08-21 00:00:00;203.0;0;;1
2003-08-22 00:00:00;203.0;0;;1
2003-08-23 00:00:00;204.0;0;;1
2003-08-24 00:00:00;204.0;0;;1
2003-08-25 00:00:00;204.0;0;;1
2003-08-26 00:00:00;203.0;0;;1
2003-08-27 00:00:00;203.0;0;;1
2003-08-28 00:00:00;203.0;0;;1
2003-08-29 00:00:00;204.0;0;;1
2003-08-30 00:00:00;205.0;0;;1
2003-08-31 00:00:00;205.0;0;;1
2003-09-01 00:00:00;207.0;0;;1
2003-09-02 00:00:00;207.0;0;;1
2003-09-03 00:00:00;206.0;0;;1
2003-09-04 00:00:00;206.0;0;;1
2003-09-05 00:00:00;205.0;0;;1
2003-09-06 00:00:00;204.0;0;;1
2003-09-07 00:00:00;204.0;0;;1
2003-09-08 00:00:00;203.0;0;;1
2003-09-09 00:00:00;203.0;0;;1
2003-09-10 00:00:00;203.0;0;;1
2003-09-11 00:00:00;205.0;0;;1
2003-09-12 00:00:00;205.0;0;;1
2003-09-13 00:00:00;206.0;0;;1
2003-09-14 00:00:00;204.0;0;;1
2003-09-15 00:00:00;202.0;0;;1
2003-09-16 00:00:00;200.0;0;;1
2003-09-17 00:00:00;200.0;0;;1
2003-09-18 00:00:00;200.0;0;;1
2003-09-19 00:00:00;200.0;0;;1
2003-09-20 00:00:00;199.0;0;;1
2003-09-21 00:00:00;199.0;0;;1
2003-09-22 00:00:00;198.0;0;;1
2003-09-23 00:00:00;198.0;0;;1
2003-09-24 00:00:00;198.0;0;;1
2003-09-25 00:00:00;198.0;0;;1
2003-09-26 00:00:00;198.0;0;;1
2003-09-27 00:00:00;198.0;0;;1
2003-09-28 00:00:00;198.0;0;;1
2003-09-29 00:00:00;198.0;0;;1
2003-09-30 00:00:00;198.0;0;;1
2003-10-01 00:00:00;198.0;0;;1
2003-10-02 00:00:00;198.0;0;;1
2003-10-03 00:00:00;198.0;0;;1
2003-10-04 00:00:00;198.0;0;;1
2003-10-05 00:00:00;198.0;0;;1
2003-10-06 00:00:00;198.0;0;;1
2003-10-07 00:00:00;200.0;0;;1
2003-10-08 00:00:00;201.0;0;;1
2003-10-09 00:00:00;202.0;0;;1
2003-10-10 00:00:00;202.0;0;;1
2003-10-11 00:00:00;205.0;0;;1
2003-10-12 00:00:00;202.0;0;;1
2003-10-13 00:00:00;199.0;0;;1
2003-10-14 00:00:00;199.0;0;;1
2003-10-15 00:00:00;198.0;0;;1
2003-10-16 00:00:00;198.0;0;;1
2003-10-17 00:00:00;197.0;0;;1
2003-10-18 00:00:00;197.0;0;;1
2003-10-19 00:00:00;197.0;0;;1
2003-10-20 00:00:00;197.0;0;;1
2003-10-21 00:00:00;198.0;0;;1
2003-10-22 00:00:00;204.0;0;;1
2003-10-23 00:00:00;206.0;0;;1
2003-10-24 00:00:00;204.0;0;;1
2003-10-25 00:00:00;202.0;0;;1
2003-10-26 00:00:00;201.0;0;;1
2003-10-27 00:00:00;199.0;0;;1
2003-10-28 00:00:00;199.0;0;;1
2003-10-29 00:00:00;199.0;0;;1
2003-10-30 00:00:00;199.0;0;;1
2003-10-31 00:00:00;199.0;0;;1
2003-11-01 00:00:00;200.0;1;;1
2003-11-02 00:00:00;201.0;1;;1
2003-11-03 00:00:00;201.0;1;;1
2003-11-04 00:00:00;202.0;1;;1
2003-11-05 00:00:00;203.0;1;;1
2003-11-06 00:00:00;202.0;1;;1
2003-11-07 00:00:00;201.0;1;;1
2003-11-08 00:00:00;201.0;1;;1
2003-11-09 00:00:00;199.0;1;;1
2003-11-10 00:00:00;199.0;1;;1
2003-11-11 00:00:00;198.0;1;;1
2003-11-12 00:00:00;198.0;1;;1
2003-11-13 00:00:00;198.0;1;;1
2003-11-14 00:00:00;198.0;1;;1
2003-11-15 00:00:00;198.0;1;;1
2003-11-16 00:00:00;198.0;1;;1
2003-11-17 00:00:00;198.0;1;;1
2003-11-18 00:00:00;199.0;1;;1
2003-11-19 00:00:00;200.0;1;;1
2003-11-20 00:00:00;201.0;1;;1
2003-11-21 00:00:00;201.0;1;;1
2003-11-22 00:00:00;202.0;1;;1
2003-11-23 00:00:00;205.0;1;;1
2003-11-24 00:00:00;206.0;1;;1
2003-11-25 00:00:00;207.0;1;;1
2003-11-26 00:00:00;206.0;1;;1
2003-11-27 00:00:00;204.0;1;;1
2003-11-28 00:00:00;202.0;1;;1
2003-11-29 00:00:00;201.0;1;;1
2003-11-30 00:00:00;200.0;1;;1
2003-12-01 00:00:00;199.0;1;;1
2003-12-02 00:00:00;199.0;1;;1
2003-12-03 00:00:00;198.0;1;;1
2003-12-04 00:00:00;199.0;1;;1
2003-12-05 00:00:00;198.0;1;;1
2003-12-06 00:00:00;200.0;1;;1
2003-12-07 00:00:00;199.0;1;;1
2003-12-08 00:00:00;198.0;1;;1
2003-12-09 00:00:00;198.0;1;;1
2003-12-10 00:00:00;198.0;1;;1
2003-12-11 00:00:00;198.0;1;;1
2003-12-12 00:00:00;198.0;1;;1
2003-12-13 00:00:00;202.0;1;;1
2003-12-14 00:00:00;220.0;1;;1
2003-12-15 00:00:00;223.0;1;;1
2003-12-16 00:00:00;214.0;1;;1
2003-12-17 00:00:00;210.0;1;;1
2003-12-18 00:00:00;210.0;1;;1
2003-12-19 00:00:00;209.0;1;;1
2003-12-20 00:00:00;208.0;1;;1
2003-12-21 00:00:00;223.0;1;;1
2003-12-22 00:00:00;235.0;1;;1
2003-12-23 00:00:00;227.0;1;;1
2003-12-24 00:00:00;220.0;1;;1